Terminal Aerodrome Forecast
Issued by NWS

Home | Current Version | Previous Version | Text Only | Print | Product List | Glossary On
Versions: 1 2 3 4 5 6 7 8 9 10 11 12 13 14 15 16 17 18 19 20 21 22 23
000
FTUS45 KRIW 050538
TAFPNA
TAF
KPNA 050538Z 0506/0606 14008KT P6SM SCT110
     FM051600 18013G21KT P6SM SCT060 BKN090
     FM052000 25020G35KT P6SM VCTS SCT040 BKN070CB
     FM060100 30017G25KT P6SM VCSH BKN060
     FM060500 30010KT P6SM SKC
      AMD LTD TO CLD VIS AND WIND=

USA.gov is the U.S. government's official web portal to all federal, state and local government web resources and services.